Regional Weather Roundup
Issued by NWS

Home | Current Version | Previous Version | Graphics & Text | Print | Product List | Glossary On
Versions: 1 2 3 4 5 6 7 8 9 10 11 12 13 14 15 16 17 18 19 20 21 22 23 24 25 26 27 28 29 30 31 32 33 34 35 36 37 38 39 40 41 42 43 44 45 46 47 48 49 50
000
ASUS44 KMEG 222000
RWRTN
TENNESSEE HOURLY STATE WEATHER ROUNDUP
NATIONAL WEATHER SERVICE MEMPHIS TN
300 PM CDT FRI MAY 22 2015

TNZ002-004-019-021-049-052-054-088>092-222100-
WEST TENNESSEE

CITY           SKY/WX    TMP DP  RH WIND       PRES   REMARKS
MEMPHIS INTL   MOSUNNY   75  44  33 NE7       30.25F
NWS MEMPHIS      N/A     72 N/A N/A MISG        N/A
JACKSON        SUNNY     73  45  36 VRB5      30.27S
DYERSBURG      SUNNY     70  39  32 NE6       30.28F
PARIS          SUNNY     70  43  37 CALM      30.28S
LEXINGTON      SUNNY     72  41  33 E5        30.26R
$$

TNZ008-025-027-028-033-062-065-066-222100-
NORTH MIDDLE TENNESSEE

CITY           SKY/WX    TMP DP  RH WIND       PRES   REMARKS
NASHVILLE      SUNNY     75  42  30 VRB3      30.26F
CLARKSVILLE    SUNNY     72  44  36 VRB3      30.27S
COOKEVILLE     SUNNY     72  45  37 E3        30.26S
CROSSVILLE     SUNNY     69  40  34 VRB7      30.28S
$$

TNZ061-075-076-078-094-096-097-222100-
SOUTH MIDDLE TENNESSEE

CITY           SKY/WX    TMP DP  RH WIND       PRES   REMARKS
FAYETTEVILLE   SUNNY    N/A N/A N/A MISG      30.24F
TULLAHOMA      SUNNY     70  39  32 CALM      30.26F
WINCHESTER     SUNNY     72  48  43 N9        30.25S
MCMINNVILLE    SUNNY     72  46  40 VRB6      30.26F
COLUMBIA       SUNNY     73  43  33 VRB3      30.24F
SHELBYVILLE    SUNNY     73  46  38 NE5       30.26F
$$

TNZ017-018-042-046-047-222100-
NORTHEAST TENNESSEE

CITY           SKY/WX    TMP DP  RH WIND       PRES   REMARKS
TRI CITIES     MOSUNNY   70  39  32 VRB5      30.25F
ELIZABETHTON   CLEAR     68  37  32 W9        30.25S
$$

TNZ012-013-036-069-073-074-222100-
CENTRAL EAST TENNESSEE

CITY           SKY/WX    TMP DP  RH WIND       PRES   REMARKS
KNOXVILLE      MOSUNNY   72  38  29 NE9       30.24S
OAK RIDGE      SUNNY     74  41  30 VRB5      30.26F
GATLINBURG     CLEAR     70  39  32 VRB5      30.24S
$$

TNZ083-085-099-222100-
SOUTHEAST TENNESSEE

CITY           SKY/WX    TMP DP  RH WIND       PRES   REMARKS
CHATTANOOGA    MOSUNNY   74  44  34 N13       30.24S
$$

SKY/WX REPORTED AS FAIR MEANS FEW OR NO CLOUDS BELOW
12 THOUSAND FEET.




USA.gov is the U.S. government's official web portal to all federal, state and local government web resources and services.